Time,TemperatureF,DewpointF,PressureIn,WindDirection,WindDirectionDegrees,WindSpeedMPH,WindSpeedGustMPH,Humidity,HourlyPrecipIn,Conditions,Clouds,dailyrainin,SoftwareType,DateUTC
2013-07-23 00:01:00,68.0,66.0,-100.00,WSW,240,2.0,6.0,92,0.00,,,-99.99,,2013-07-23 04:01:00,
2013-07-23 00:11:00,68.0,66.0,-100.00,West,260,4.0,7.0,91,0.00,,,-99.99,,2013-07-23 04:11:00,
2013-07-23 00:22:00,68.0,65.0,-100.00,WSW,250,4.0,8.0,91,0.00,,,-99.99,,2013-07-23 04:22:00,
2013-07-23 00:32:00,68.0,65.0,-100.00,WSW,245,3.0,8.0,91,0.00,,,-99.99,,2013-07-23 04:32:00,
2013-07-23 00:43:00,68.0,65.0,-100.00,WSW,250,4.0,7.0,91,0.00,,,-99.99,,2013-07-23 04:43:00,
2013-07-23 01:33:00,67.0,65.0,-100.00,West,270,4.0,9.0,92,0.00,,,-99.99,,2013-07-23 05:33:00,
2013-07-23 01:44:00,67.0,65.0,-100.00,West,270,3.0,7.0,92,0.00,,,-99.99,,2013-07-23 05:44:00,
2013-07-23 02:33:00,66.0,64.0,-100.00,WNW,285,3.0,10.0,93,0.00,,,-99.99,,2013-07-23 06:33:00,
2013-07-23 02:42:00,66.0,64.0,-100.00,WNW,300,3.0,6.0,93,0.00,,,-99.99,,2013-07-23 06:42:00,
2013-07-23 02:52:00,65.0,64.0,-100.00,West,275,6.0,9.0,93,0.00,,,-99.99,,2013-07-23 06:52:00,
2013-07-23 03:01:00,65.0,63.0,-100.00,WNW,285,4.0,9.0,93,0.00,,,-99.99,,2013-07-23 07:01:00,
2013-07-23 03:22:00,65.0,63.0,-100.00,WNW,300,2.0,10.0,93,0.00,,,-99.99,,2013-07-23 07:22:00,
2013-07-23 03:33:00,65.0,63.0,-100.00,West,275,4.0,7.0,93,0.00,,,-99.99,,2013-07-23 07:33:00,
2013-07-23 03:42:00,65.0,63.0,-100.00,West,275,4.0,6.0,93,0.00,,,-99.99,,2013-07-23 07:42:00,
2013-07-23 04:01:00,65.0,63.0,-100.00,WNW,290,2.0,6.0,93,0.00,,,-99.99,,2013-07-23 08:01:00,
2013-07-23 06:02:00,65.0,63.0,-100.00,West,270,2.0,4.0,93,0.00,,,-99.99,,2013-07-23 10:02:00,
2013-07-23 07:43:00,64.0,62.0,-100.00,West,275,6.0,10.0,93,0.00,,,-99.99,,2013-07-23 11:43:00,
2013-07-23 08:11:00,64.0,62.0,-100.00,West,280,4.0,8.0,93,0.00,,,-99.99,,2013-07-23 12:11:00,
2013-07-23 08:22:00,65.0,62.0,-100.00,WSW,245,3.0,6.0,93,0.00,,,-99.99,,2013-07-23 12:22:00,
2013-07-23 08:33:00,64.0,62.0,-100.00,WSW,250,7.0,11.0,92,0.00,,,-99.99,,2013-07-23 12:33:00,
2013-07-23 08:43:00,66.0,63.0,-100.00,West,270,2.0,6.0,91,0.00,,,-99.99,,2013-07-23 12:43:00,
2013-07-23 09:01:00,66.0,63.0,-100.00,WSW,255,3.0,6.0,90,0.00,,,-99.99,,2013-07-23 13:01:00,
2013-07-23 10:12:00,71.0,64.0,-100.00,WSW,240,2.0,5.0,80,0.00,,,-99.99,,2013-07-23 14:12:00,
2013-07-23 10:22:00,71.0,64.0,-100.00,West,270,3.0,4.0,79,0.00,,,-99.99,,2013-07-23 14:22:00,
2013-07-23 10:33:00,72.0,65.0,-100.00,West,260,4.0,7.0,77,0.00,,,-99.99,,2013-07-23 14:33:00,
2013-07-23 10:44:00,73.0,64.0,-100.00,WNW,290,4.0,8.0,75,0.00,,,-99.99,,2013-07-23 14:44:00,
2013-07-23 11:03:00,74.0,65.0,-100.00,SW,225,1.0,6.0,73,0.00,,,-99.99,,2013-07-23 15:03:00,
2013-07-23 12:43:00,75.0,66.0,-100.00,West,275,6.0,12.0,72,0.00,,,-99.99,,2013-07-23 16:43:00,
2013-07-23 13:11:00,77.0,66.0,-100.00,WSW,255,8.0,14.0,68,0.00,,,-99.99,,2013-07-23 17:11:00,
2013-07-23 13:22:00,76.0,65.0,-100.00,West,270,6.0,11.0,68,0.00,,,-99.99,,2013-07-23 17:22:00,
2013-07-23 13:32:00,76.0,64.0,-100.00,WSW,245,8.0,12.0,66,0.00,,,-99.99,,2013-07-23 17:32:00,
2013-07-23 13:42:00,76.0,65.0,-100.00,West,275,9.0,14.0,67,0.00,,,-99.99,,2013-07-23 17:42:00,
2013-07-23 14:48:00,78.0,66.0,-100.00,West,260,5.0,12.0,67,0.00,,,-99.99,,2013-07-23 18:48:00,
2013-07-23 15:03:00,78.0,65.0,-100.00,SSW,210,6.0,9.0,64,0.00,,,-99.99,,2013-07-23 19:03:00,
2013-07-23 15:46:00,78.0,66.0,-100.00,SSW,210,4.0,11.0,66,0.00,,,-99.99,,2013-07-23 19:46:00,
2013-07-23 16:13:00,79.0,67.0,-100.00,WSW,245,2.0,6.0,66,0.00,,,-99.99,,2013-07-23 20:13:00,
2013-07-23 16:23:00,78.0,66.0,-100.00,WSW,245,7.0,12.0,66,0.00,,,-99.99,,2013-07-23 20:23:00,
2013-07-23 16:45:00,80.0,68.0,-100.00,SW,225,4.0,12.0,67,0.00,,,-99.99,,2013-07-23 20:45:00,
2013-07-23 17:04:00,80.0,68.0,-100.00,SW,215,5.0,12.0,65,0.00,,,-99.99,,2013-07-23 21:04:00,
2013-07-23 18:05:00,79.0,66.0,-100.00,WSW,240,12.0,19.0,65,0.00,,,-99.99,,2013-07-23 22:05:00,
2013-07-23 18:12:00,78.0,68.0,-100.00,SW,235,9.0,16.0,71,0.55,,,-99.99,,2013-07-23 22:12:00,
2013-07-23 18:24:00,78.0,68.0,-100.00,NW,315,2.0,13.0,70,0.00,,,-99.99,,2013-07-23 22:24:00,
2013-07-23 18:34:00,73.0,62.0,-100.00,NNE,30,12.0,21.0,69,0.00,,,-99.99,,2013-07-23 22:34:00,
2013-07-23 19:45:00,66.0,63.0,-100.00,WSW,240,6.0,12.0,89,0.00,,,-99.99,,2013-07-23 23:45:00,
2013-07-23 19:57:00,67.0,64.0,-100.00,SE,145,2.0,9.0,89,0.00,,,-99.99,,2013-07-23 23:57:00,
2013-07-23 20:09:00,67.0,63.0,-100.00,SSE,150,3.0,6.0,86,0.00,,,-99.99,,2013-07-24 00:09:00,
2013-07-23 20:14:00,67.0,63.0,-100.00,SSW,205,2.0,6.0,88,0.00,,,-99.99,,2013-07-24 00:14:00,
2013-07-23 20:34:00,67.0,64.0,-100.00,West,275,2.0,5.0,88,0.00,,,-99.99,,2013-07-24 00:34:00,
2013-07-23 20:54:00,67.0,64.0,-100.00,SW,220,1.0,6.0,90,0.00,,,-99.99,,2013-07-24 00:54:00,
2013-07-23 21:04:00,66.0,64.0,-100.00,ESE,120,1.0,4.0,90,0.00,,,-99.99,,2013-07-24 01:04:00,
2013-07-23 22:05:00,66.0,63.0,-100.00,SSE,160,1.0,3.0,90,0.00,,,-99.99,,2013-07-24 02:05:00,
2013-07-23 22:27:00,65.0,63.0,-100.00,South,185,1.0,3.0,90,0.00,,,-99.99,,2013-07-24 02:27:00,
2013-07-23 22:38:00,65.0,63.0,-100.00,SW,230,1.0,3.0,91,0.00,,,-99.99,,2013-07-24 02:38:00,
2013-07-23 22:47:00,65.0,63.0,-100.00,NW,315,2.0,4.0,91,0.00,,,-99.99,,2013-07-24 02:47:00,
2013-07-23 23:13:00,65.0,62.0,-100.00,SW,235,2.0,4.0,92,0.00,,,-99.99,,2013-07-24 03:13:00,
2013-07-23 23:24:00,65.0,63.0,-100.00,WSW,255,2.0,6.0,92,0.00,,,-99.99,,2013-07-24 03:24:00,
2013-07-23 23:45:00,65.0,63.0,-100.00,West,260,2.0,3.0,92,0.00,,,-99.99,,2013-07-24 03:45:00,